DLH5KW EDDS-EDDH

Flight info

Callsign DLH5KW
Flight time 0h 51m
Altitude 37000
Route OKIBA4B/25 OKIBA N851 RIMKI Z99 LOHRE DCT MASEK DCT ELNAT/N0458F380 P605 NOLGO NOLGO3S
Aircraft A346/H-SDE2E3FGHIJ3J4J5M1RWXY/LB1D1

Departure

Time 2026-05-05 17:47
Airport Stuttgart Airport (EDDS)

Arrival

Time 2026-05-05 18:38
Airport Hamburg Helmut Schmidt Airport (EDDH)
Time Latitude Longitude Altitude Speed Heading
2026-05-05 17:12 48.69120 9.20328 1294 ft 0 kts 345°
2026-05-05 17:37 48.69100 9.20337 1294 ft 4 kts 344°
2026-05-05 17:37 48.69083 9.20344 1294 ft 2 kts 344°
2026-05-05 17:37 48.69056 9.20348 1294 ft 4 kts 19°
2026-05-05 17:37 48.69043 9.20334 1294 ft 4 kts 60°
2026-05-05 17:38 48.69034 9.20299 1294 ft 4 kts 76°
2026-05-05 17:38 48.69030 9.20272 1294 ft 0 kts 73°
2026-05-05 17:41 48.69034 9.20291 1294 ft 7 kts 73°
2026-05-05 17:41 48.69050 9.20375 1294 ft 10 kts 73°
2026-05-05 17:42 48.69043 9.20489 1294 ft 14 kts 118°
2026-05-05 17:42 48.68975 9.20615 1294 ft 17 kts 119°
2026-05-05 17:42 48.68983 9.20801 1294 ft 20 kts 73°
2026-05-05 17:42 48.69023 9.21013 1294 ft 22 kts 74°
2026-05-05 17:43 48.69068 9.21245 1294 ft 24 kts 74°
2026-05-05 17:43 48.69116 9.21497 1294 ft 26 kts 74°
2026-05-05 17:43 48.69167 9.21763 1294 ft 27 kts 74°
2026-05-05 17:43 48.69220 9.22044 1294 ft 28 kts 74°
2026-05-05 17:44 48.69275 9.22334 1294 ft 29 kts 74°
2026-05-05 17:44 48.69331 9.22633 1294 ft 30 kts 74°
2026-05-05 17:44 48.69390 9.22941 1294 ft 31 kts 73°
2026-05-05 17:44 48.69450 9.23258 1294 ft 31 kts 75°
2026-05-05 17:45 48.69510 9.23577 1294 ft 32 kts 74°
2026-05-05 17:45 48.69570 9.23901 1294 ft 32 kts 73°
2026-05-05 17:45 48.69604 9.24138 1294 ft 21 kts 100°
2026-05-05 17:45 48.69512 9.24308 1294 ft 20 kts 157°
2026-05-05 17:46 48.69392 9.24287 1294 ft 19 kts 232°
2026-05-05 17:46 48.69345 9.24085 1294 ft 25 kts 254°
2026-05-05 17:46 48.69221 9.23428 1294 ft 108 kts 254°
2026-05-05 17:46 48.68949 9.21987 1304 ft 176 kts 254°
2026-05-05 17:47 48.68604 9.20136 2082 ft 181 kts 254°
2026-05-05 17:47 48.68267 9.18311 3205 ft 177 kts 253°
2026-05-05 17:47 48.67935 9.16521 4062 ft 175 kts 253°
2026-05-05 17:47 48.67595 9.14740 4878 ft 178 kts 253°
2026-05-05 17:48 48.67619 9.12789 5343 ft 204 kts 288°
2026-05-05 17:48 48.68683 9.11153 5814 ft 240 kts 329°
2026-05-05 17:48 48.70438 9.10771 6305 ft 274 kts
2026-05-05 17:48 48.72369 9.11460 6938 ft 293 kts 14°
2026-05-05 17:49 48.74324 9.12415 7816 ft 299 kts 15°
2026-05-05 17:49 48.76337 9.13391 8831 ft 302 kts 14°
2026-05-05 17:49 48.78371 9.14309 9785 ft 306 kts 13°
2026-05-05 17:49 48.80447 9.15196 10545 ft 316 kts 12°
2026-05-05 17:50 48.82601 9.16077 11072 ft 333 kts 12°
2026-05-05 17:50 48.84906 9.16999 11567 ft 352 kts 12°
2026-05-05 17:50 48.87345 9.17966 12031 ft 370 kts 12°
2026-05-05 17:50 48.89900 9.18978 12562 ft 386 kts 12°
2026-05-05 17:51 48.92523 9.20018 13390 ft 392 kts 12°
2026-05-05 17:51 48.95178 9.21055 14267 ft 395 kts 11°
2026-05-05 17:51 48.97890 9.21745 15109 ft 397 kts
2026-05-05 17:51 49.00638 9.22261 15919 ft 401 kts
2026-05-05 17:52 49.03412 9.22764 16694 ft 405 kts
2026-05-05 17:52 49.06234 9.23295 17481 ft 410 kts
2026-05-05 17:52 49.09087 9.23853 18249 ft 415 kts
2026-05-05 17:52 49.11972 9.24435 18930 ft 419 kts
2026-05-05 17:53 49.14879 9.25033 19629 ft 423 kts
2026-05-05 17:53 49.17814 9.25641 20325 ft 427 kts
2026-05-05 17:53 49.20740 9.26250 20995 ft 431 kts
2026-05-05 17:53 49.23733 9.26876 21680 ft 435 kts
2026-05-05 17:54 49.26754 9.27510 22354 ft 439 kts
2026-05-05 17:54 49.29801 9.28150 23027 ft 443 kts
2026-05-05 17:54 49.32870 9.28796 23645 ft 448 kts
2026-05-05 17:54 49.35966 9.29438 24194 ft 451 kts
2026-05-05 17:55 49.39097 9.30084 24756 ft 455 kts
2026-05-05 17:55 49.42243 9.30741 25329 ft 458 kts
2026-05-05 17:55 49.45419 9.31414 25888 ft 461 kts
2026-05-05 17:55 49.48616 9.32094 26427 ft 465 kts
2026-05-05 17:56 49.51837 9.32781 26957 ft 469 kts
2026-05-05 17:56 49.55079 9.33472 27485 ft 472 kts
2026-05-05 17:56 49.58310 9.34162 28001 ft 476 kts
2026-05-05 17:56 49.61626 9.34868 28507 ft 479 kts
2026-05-05 17:57 49.64948 9.35578 29032 ft 483 kts
2026-05-05 17:57 49.68273 9.36289 29631 ft 481 kts
2026-05-05 17:57 49.70467 9.36758 29811 ft 480 kts
2026-05-05 17:58 49.77093 9.38182 29830 ft 479 kts
2026-05-05 17:58 49.83725 9.39406 29804 ft 481 kts
2026-05-05 17:59 49.90435 9.39247 30154 ft 481 kts 360°
2026-05-05 17:59 49.93789 9.39066 30589 ft 481 kts 359°
2026-05-05 17:59 49.97141 9.38879 31034 ft 481 kts 359°
2026-05-05 17:59 50.00492 9.38690 31528 ft 481 kts 359°
2026-05-05 18:00 50.03794 9.38503 32057 ft 481 kts 359°
2026-05-05 18:00 50.07144 9.38314 32612 ft 481 kts 359°
2026-05-05 18:00 50.10518 9.38129 33175 ft 481 kts 359°
2026-05-05 18:00 50.13859 9.37948 33703 ft 481 kts 359°
2026-05-05 18:01 50.17213 9.37768 33825 ft 483 kts 359°
2026-05-05 18:01 50.23929 9.37412 33819 ft 482 kts 359°
2026-05-05 18:02 50.30630 9.37074 33817 ft 482 kts 359°
2026-05-05 18:02 50.37317 9.37411 33815 ft 480 kts 11°
2026-05-05 18:03 50.43853 9.39254 33821 ft 479 kts 13°
2026-05-05 18:03 50.50425 9.41205 33813 ft 480 kts 12°
2026-05-05 18:04 50.57022 9.43116 33815 ft 482 kts 12°
2026-05-05 18:04 50.63583 9.44979 33811 ft 482 kts 12°
2026-05-05 18:05 50.70221 9.46864 34062 ft 486 kts 12°
2026-05-05 18:05 50.73536 9.47811 34608 ft 483 kts 11°
2026-05-05 18:05 50.76834 9.48755 35177 ft 480 kts 11°
2026-05-05 18:05 50.80120 9.49695 35610 ft 480 kts 11°
2026-05-05 18:06 50.83419 9.50637 35807 ft 484 kts 10°
2026-05-05 18:06 50.90059 9.52530 35808 ft 485 kts 10°
2026-05-05 18:07 50.96707 9.54437 35803 ft 486 kts 10°
2026-05-05 18:07 51.03317 9.56339 35806 ft 486 kts 10°
2026-05-05 18:08 51.09987 9.58262 35805 ft 486 kts 10°
2026-05-05 18:08 51.16647 9.60189 35807 ft 486 kts 10°
2026-05-05 18:09 51.23311 9.62132 35814 ft 488 kts
2026-05-05 18:09 51.29995 9.64075 35812 ft 488 kts
2026-05-05 18:10 51.36648 9.66016 35815 ft 488 kts
2026-05-05 18:10 51.43356 9.67983 35821 ft 488 kts
2026-05-05 18:11 51.50044 9.69944 35819 ft 488 kts
2026-05-05 18:11 51.56732 9.71905 35822 ft 488 kts
2026-05-05 18:12 51.63368 9.73863 35826 ft 488 kts
2026-05-05 18:12 51.70043 9.75848 35835 ft 487 kts
2026-05-05 18:13 51.76725 9.77832 35832 ft 487 kts
2026-05-05 18:13 51.83326 9.79798 35787 ft 480 kts
2026-05-05 18:13 51.86604 9.80777 35331 ft 478 kts
2026-05-05 18:14 51.89875 9.81760 34899 ft 477 kts
2026-05-05 18:14 51.93146 9.82742 34456 ft 478 kts
2026-05-05 18:14 51.96421 9.83723 34019 ft 479 kts
2026-05-05 18:14 51.99707 9.84708 33554 ft 480 kts
2026-05-05 18:15 52.02998 9.85699 33045 ft 481 kts
2026-05-05 18:15 52.06295 9.86694 32508 ft 482 kts
2026-05-05 18:15 52.09593 9.87691 31978 ft 482 kts
2026-05-05 18:15 52.12895 9.88695 31462 ft 482 kts
2026-05-05 18:16 52.16164 9.89690 30965 ft 483 kts
2026-05-05 18:16 52.19519 9.90707 30462 ft 484 kts
2026-05-05 18:16 52.22791 9.91699 29969 ft 484 kts
2026-05-05 18:16 52.26145 9.92718 29397 ft 484 kts
2026-05-05 18:17 52.29430 9.93719 28843 ft 485 kts
2026-05-05 18:17 52.32756 9.94734 28298 ft 486 kts
2026-05-05 18:17 52.36080 9.95752 27751 ft 486 kts
2026-05-05 18:17 52.39407 9.96776 27201 ft 484 kts
2026-05-05 18:18 52.42705 9.97788 26651 ft 480 kts
2026-05-05 18:18 52.45977 9.98795 26116 ft 476 kts
2026-05-05 18:18 52.49220 9.99798 25586 ft 472 kts
2026-05-05 18:18 52.52397 10.00782 25083 ft 469 kts
2026-05-05 18:19 52.55582 10.01846 24569 ft 466 kts 11°
2026-05-05 18:19 52.58714 10.03147 24083 ft 462 kts 13°
2026-05-05 18:19 52.61805 10.04532 23526 ft 457 kts 14°
2026-05-05 18:19 52.64850 10.05920 22953 ft 448 kts 14°
2026-05-05 18:20 52.67823 10.07272 22373 ft 438 kts 14°
2026-05-05 18:20 52.70742 10.08589 21818 ft 430 kts 14°
2026-05-05 18:20 52.73603 10.09875 21280 ft 421 kts 14°
2026-05-05 18:20 52.76395 10.10959 20750 ft 413 kts
2026-05-05 18:21 52.79211 10.11634 20202 ft 404 kts
2026-05-05 18:21 52.81992 10.11906 19695 ft 397 kts
2026-05-05 18:21 52.84732 10.12005 19184 ft 390 kts 360°
2026-05-05 18:21 52.87422 10.12073 18680 ft 383 kts 360°
2026-05-05 18:22 52.90051 10.12141 18131 ft 371 kts 360°
2026-05-05 18:22 52.92586 10.12215 17559 ft 359 kts 360°
2026-05-05 18:22 52.95045 10.12290 16997 ft 348 kts
2026-05-05 18:22 52.97438 10.12366 16444 ft 338 kts 360°
2026-05-05 18:23 52.99783 10.12443 15950 ft 336 kts 360°
2026-05-05 18:23 53.02119 10.12517 15417 ft 336 kts 360°
2026-05-05 18:23 53.04451 10.12591 14886 ft 334 kts
2026-05-05 18:23 53.06772 10.12670 14353 ft 331 kts 360°
2026-05-05 18:24 53.09062 10.12748 13852 ft 327 kts 360°
2026-05-05 18:24 53.11292 10.12819 13306 ft 322 kts 360°
2026-05-05 18:24 53.13540 10.12893 12732 ft 315 kts 360°
2026-05-05 18:24 53.15706 10.12972 12176 ft 307 kts 359°
2026-05-05 18:25 53.17789 10.13042 11651 ft 299 kts 359°
2026-05-05 18:25 53.19187 10.13087 11288 ft 295 kts 360°
2026-05-05 18:25 53.21861 10.13179 10585 ft 287 kts 360°
2026-05-05 18:25 53.23842 10.13247 10061 ft 281 kts 359°
2026-05-05 18:26 53.25785 10.13311 9540 ft 277 kts 359°
2026-05-05 18:26 53.27695 10.13370 8976 ft 273 kts 360°
2026-05-05 18:26 53.29585 10.13435 8434 ft 269 kts
2026-05-05 18:26 53.31448 10.13496 7894 ft 266 kts 360°
2026-05-05 18:27 53.33286 10.13554 7367 ft 263 kts 360°
2026-05-05 18:27 53.35100 10.13611 6971 ft 255 kts
2026-05-05 18:27 53.36830 10.13669 6935 ft 245 kts 359°
2026-05-05 18:27 53.38500 10.13342 6934 ft 244 kts 344°
2026-05-05 18:28 53.41283 10.10218 6479 ft 244 kts 315°
2026-05-05 18:28 53.42477 10.08203 6132 ft 242 kts 314°
2026-05-05 18:28 53.43646 10.06167 5707 ft 241 kts 314°
2026-05-05 18:29 53.44805 10.04126 5264 ft 239 kts 314°
2026-05-05 18:29 53.45931 10.02120 4823 ft 233 kts 314°
2026-05-05 18:29 53.47021 10.00142 4402 ft 227 kts 314°
2026-05-05 18:29 53.48018 9.98128 4032 ft 222 kts 300°
2026-05-05 18:30 53.48290 9.95710 4010 ft 205 kts 262°
2026-05-05 18:30 53.47723 9.93612 4013 ft 201 kts 235°
2026-05-05 18:30 53.46857 9.91773 4014 ft 199 kts 230°
2026-05-05 18:30 53.45924 9.89938 4020 ft 215 kts 229°
2026-05-05 18:31 53.44929 9.88008 4020 ft 220 kts 229°
2026-05-05 18:31 53.43921 9.86058 4004 ft 221 kts 229°
2026-05-05 18:31 53.42907 9.84099 3984 ft 222 kts 229°
2026-05-05 18:31 53.41898 9.82146 3985 ft 220 kts 229°
2026-05-05 18:32 53.41039 9.80066 3955 ft 220 kts 251°
2026-05-05 18:32 53.40962 9.77554 3979 ft 217 kts 286°
2026-05-05 18:32 53.41751 9.75468 3977 ft 212 kts 322°
2026-05-05 18:32 53.43040 9.74317 3738 ft 209 kts 341°
2026-05-05 18:33 53.44400 9.73486 3459 ft 207 kts 343°
2026-05-05 18:33 53.45761 9.72695 3145 ft 205 kts 344°
2026-05-05 18:33 53.47122 9.72437 2994 ft 195 kts 13°
2026-05-05 18:33 53.48429 9.73114 3021 ft 196 kts 22°
2026-05-05 18:34 53.49704 9.73951 3011 ft 197 kts 24°
2026-05-05 18:34 53.50892 9.75010 3001 ft 194 kts 36°
2026-05-05 18:34 53.51885 9.76467 2981 ft 181 kts 46°
2026-05-05 18:34 53.52711 9.77930 2938 ft 165 kts 48°
2026-05-05 18:35 53.53464 9.79370 2770 ft 162 kts 50°
2026-05-05 18:35 53.54189 9.80819 2526 ft 161 kts 50°
2026-05-05 18:35 53.54904 9.82276 2301 ft 160 kts 50°
2026-05-05 18:35 53.55609 9.83717 2086 ft 159 kts 50°
2026-05-05 18:36 53.56309 9.85146 1865 ft 157 kts 51°
2026-05-05 18:36 53.57001 9.86559 1654 ft 153 kts 51°
2026-05-05 18:36 53.57671 9.87925 1435 ft 150 kts 51°
2026-05-05 18:36 53.58332 9.89284 1213 ft 149 kts 50°
2026-05-05 18:37 53.58988 9.90612 966 ft 149 kts 50°
2026-05-05 18:37 53.59657 9.91945 766 ft 149 kts 49°
2026-05-05 18:37 53.60314 9.93283 586 ft 148 kts 50°
2026-05-05 18:37 53.60967 9.94633 386 ft 148 kts 50°
2026-05-05 18:38 53.61622 9.95956 192 ft 146 kts 50°
2026-05-05 18:38 53.62262 9.97258 50 ft 137 kts 50°
2026-05-05 18:38 53.62779 9.98302 48 ft 86 kts 50°
2026-05-05 18:38 53.63032 9.98810 50 ft 42 kts 50°
2026-05-05 18:39 53.63214 9.99177 53 ft 37 kts 50°
2026-05-05 18:39 53.63290 9.99459 55 ft 23 kts 88°
2026-05-05 18:39 53.63280 9.99625 54 ft 0 kts 99°
2026-05-05 18:39 53.63280 9.99633 57 ft 0 kts 99°
2026-05-05 18:40 53.63277 9.99658 57 ft 4 kts 99°
2026-05-05 18:40 53.63276 9.99724 57 ft 7 kts 82°
2026-05-05 18:40 53.63304 9.99815 57 ft 10 kts 51°
2026-05-05 18:41 53.63360 9.99924 50 ft 14 kts 49°
2026-05-05 18:41 53.63421 10.00056 50 ft 9 kts 68°
2026-05-05 18:41 53.63421 10.00131 55 ft 11 kts 109°
2026-05-05 18:41 53.63355 10.00195 54 ft 13 kts 173°
2026-05-05 18:42 53.63307 10.00203 53 ft 2 kts 156°
2026-05-05 18:42 53.63280 10.00285 57 ft 10 kts 96°
2026-05-05 18:42 53.63280 10.00351 57 ft 0 kts 88°